Index of /20260422/WXO-DD/model_gdps/15km/00/075
Name Last modified Size Description
Parent Directory -
20260422T00Z_MSC_GDPS_AbsoluteVorticity_IsbL-0200_LatLon0.15_PT075H.grib2 2026-04-22 04:23 1.5M
20260422T00Z_MSC_GDPS_AbsoluteVorticity_IsbL-0250_LatLon0.15_PT075H.grib2 2026-04-22 04:23 1.3M
20260422T00Z_MSC_GDPS_AbsoluteVorticity_IsbL-0500_LatLon0.15_PT075H.grib2 2026-04-22 04:23 1.5M
20260422T00Z_MSC_GDPS_AbsoluteVorticity_IsbL-0700_LatLon0.15_PT075H.grib2 2026-04-22 04:23 1.6M
20260422T00Z_MSC_GDPS_AbsoluteVorticity_IsbL-0850_LatLon0.15_PT075H.grib2 2026-04-22 04:23 1.6M
20260422T00Z_MSC_GDPS_AirTemp_AGL-120m_LatLon0.15_PT075H.grib2 2026-04-22 04:23 905K
20260422T00Z_MSC_GDPS_AirTemp_AGL-2m_LatLon0.15_PT075H.grib2 2026-04-22 04:23 1.0M
20260422T00Z_MSC_GDPS_AirTemp_AGL-40m_LatLon0.15_PT075H.grib2 2026-04-22 04:23 808K
20260422T00Z_MSC_GDPS_AirTemp_AGL-80m_LatLon0.15_PT075H.grib2 2026-04-22 04:23 914K
20260422T00Z_MSC_GDPS_AirTemp_IsbL-0001_LatLon0.15_PT075H.grib2 2026-04-22 04:23 701K
20260422T00Z_MSC_GDPS_AirTemp_IsbL-0005_LatLon0.15_PT075H.grib2 2026-04-22 04:23 745K
20260422T00Z_MSC_GDPS_AirTemp_IsbL-0010_LatLon0.15_PT075H.grib2 2026-04-22 04:23 754K
20260422T00Z_MSC_GDPS_AirTemp_IsbL-0020_LatLon0.15_PT075H.grib2 2026-04-22 04:23 693K
20260422T00Z_MSC_GDPS_AirTemp_IsbL-0030_LatLon0.15_PT075H.grib2 2026-04-22 04:23 745K
20260422T00Z_MSC_GDPS_AirTemp_IsbL-0050_LatLon0.15_PT075H.grib2 2026-04-22 04:23 805K
20260422T00Z_MSC_GDPS_AirTemp_IsbL-0100_LatLon0.15_PT075H.grib2 2026-04-22 04:23 950K
20260422T00Z_MSC_GDPS_AirTemp_IsbL-0150_LatLon0.15_PT075H.grib2 2026-04-22 04:23 969K
20260422T00Z_MSC_GDPS_AirTemp_IsbL-0175_LatLon0.15_PT075H.grib2 2026-04-22 04:23 961K
20260422T00Z_MSC_GDPS_AirTemp_IsbL-0200_LatLon0.15_PT075H.grib2 2026-04-22 04:23 1.0M
20260422T00Z_MSC_GDPS_AirTemp_IsbL-0225_LatLon0.15_PT075H.grib2 2026-04-22 04:23 1.0M
20260422T00Z_MSC_GDPS_AirTemp_IsbL-0250_LatLon0.15_PT075H.grib2 2026-04-22 04:23 1.0M
20260422T00Z_MSC_GDPS_AirTemp_IsbL-0275_LatLon0.15_PT075H.grib2 2026-04-22 04:23 1.0M
20260422T00Z_MSC_GDPS_AirTemp_IsbL-0300_LatLon0.15_PT075H.grib2 2026-04-22 04:23 1.0M
20260422T00Z_MSC_GDPS_AirTemp_IsbL-0350_LatLon0.15_PT075H.grib2 2026-04-22 04:23 932K
20260422T00Z_MSC_GDPS_AirTemp_IsbL-0400_LatLon0.15_PT075H.grib2 2026-04-22 04:23 944K
20260422T00Z_MSC_GDPS_AirTemp_IsbL-0450_LatLon0.15_PT075H.grib2 2026-04-22 04:23 964K
20260422T00Z_MSC_GDPS_AirTemp_IsbL-0500_LatLon0.15_PT075H.grib2 2026-04-22 04:23 765K
20260422T00Z_MSC_GDPS_AirTemp_IsbL-0550_LatLon0.15_PT075H.grib2 2026-04-22 04:23 799K
20260422T00Z_MSC_GDPS_AirTemp_IsbL-0600_LatLon0.15_PT075H.grib2 2026-04-22 04:23 889K
20260422T00Z_MSC_GDPS_AirTemp_IsbL-0650_LatLon0.15_PT075H.grib2 2026-04-22 04:23 908K
20260422T00Z_MSC_GDPS_AirTemp_IsbL-0700_LatLon0.15_PT075H.grib2 2026-04-22 04:23 940K
20260422T00Z_MSC_GDPS_AirTemp_IsbL-0750_LatLon0.15_PT075H.grib2 2026-04-22 04:23 1.0M
20260422T00Z_MSC_GDPS_AirTemp_IsbL-0800_LatLon0.15_PT075H.grib2 2026-04-22 04:23 1.1M
20260422T00Z_MSC_GDPS_AirTemp_IsbL-0850_LatLon0.15_PT075H.grib2 2026-04-22 04:23 1.1M
20260422T00Z_MSC_GDPS_AirTemp_IsbL-0875_LatLon0.15_PT075H.grib2 2026-04-22 04:23 1.1M
20260422T00Z_MSC_GDPS_AirTemp_IsbL-0900_LatLon0.15_PT075H.grib2 2026-04-22 04:23 1.1M
20260422T00Z_MSC_GDPS_AirTemp_IsbL-0925_LatLon0.15_PT075H.grib2 2026-04-22 04:23 1.1M
20260422T00Z_MSC_GDPS_AirTemp_IsbL-0950_LatLon0.15_PT075H.grib2 2026-04-22 04:23 1.1M
20260422T00Z_MSC_GDPS_AirTemp_IsbL-0970_LatLon0.15_PT075H.grib2 2026-04-22 04:23 1.1M
20260422T00Z_MSC_GDPS_AirTemp_IsbL-0985_LatLon0.15_PT075H.grib2 2026-04-22 04:23 1.1M
20260422T00Z_MSC_GDPS_AirTemp_IsbL-1000_LatLon0.15_PT075H.grib2 2026-04-22 04:23 1.1M
20260422T00Z_MSC_GDPS_AirTemp_IsbL-1015_LatLon0.15_PT075H.grib2 2026-04-22 04:23 1.1M
20260422T00Z_MSC_GDPS_Albedo_Sfc_LatLon0.15_PT075H.grib2 2026-04-22 04:23 248K
20260422T00Z_MSC_GDPS_CAPE_Sfc_LatLon0.15_PT075H.grib2 2026-04-22 04:23 3.9M
20260422T00Z_MSC_GDPS_CIN_Sfc_LatLon0.15_PT075H.grib2 2026-04-22 04:23 2.9M
20260422T00Z_MSC_GDPS_CloudWater_EAtm_LatLon0.15_PT075H.grib2 2026-04-22 04:23 528K
20260422T00Z_MSC_GDPS_ConvectivePrecip-Accum_Sfc_LatLon0.15_PT075H.grib2 2026-04-22 04:23 3.2M
20260422T00Z_MSC_GDPS_DewPointDepression_AGL-2m_LatLon0.15_PT075H.grib2 2026-04-22 04:23 752K
20260422T00Z_MSC_GDPS_DewPointDepression_IsbL-0010_LatLon0.15_PT075H.grib2 2026-04-22 04:23 45K
20260422T00Z_MSC_GDPS_DewPointDepression_IsbL-0020_LatLon0.15_PT075H.grib2 2026-04-22 04:23 73K
20260422T00Z_MSC_GDPS_DewPointDepression_IsbL-0030_LatLon0.15_PT075H.grib2 2026-04-22 04:23 79K
20260422T00Z_MSC_GDPS_DewPointDepression_IsbL-0050_LatLon0.15_PT075H.grib2 2026-04-22 04:23 362K
20260422T00Z_MSC_GDPS_DewPointDepression_IsbL-0100_LatLon0.15_PT075H.grib2 2026-04-22 04:23 399K
20260422T00Z_MSC_GDPS_DewPointDepression_IsbL-0150_LatLon0.15_PT075H.grib2 2026-04-22 04:23 474K
20260422T00Z_MSC_GDPS_DewPointDepression_IsbL-0175_LatLon0.15_PT075H.grib2 2026-04-22 04:23 567K
20260422T00Z_MSC_GDPS_DewPointDepression_IsbL-0200_LatLon0.15_PT075H.grib2 2026-04-22 04:23 657K
20260422T00Z_MSC_GDPS_DewPointDepression_IsbL-0225_LatLon0.15_PT075H.grib2 2026-04-22 04:23 770K
20260422T00Z_MSC_GDPS_DewPointDepression_IsbL-0250_LatLon0.15_PT075H.grib2 2026-04-22 04:23 860K
20260422T00Z_MSC_GDPS_DewPointDepression_IsbL-0275_LatLon0.15_PT075H.grib2 2026-04-22 04:23 884K
20260422T00Z_MSC_GDPS_DewPointDepression_IsbL-0300_LatLon0.15_PT075H.grib2 2026-04-22 04:23 933K
20260422T00Z_MSC_GDPS_DewPointDepression_IsbL-0350_LatLon0.15_PT075H.grib2 2026-04-22 04:23 967K
20260422T00Z_MSC_GDPS_DewPointDepression_IsbL-0400_LatLon0.15_PT075H.grib2 2026-04-22 04:23 1.0M
20260422T00Z_MSC_GDPS_DewPointDepression_IsbL-0450_LatLon0.15_PT075H.grib2 2026-04-22 04:23 1.0M
20260422T00Z_MSC_GDPS_DewPointDepression_IsbL-0500_LatLon0.15_PT075H.grib2 2026-04-22 04:23 1.0M
20260422T00Z_MSC_GDPS_DewPointDepression_IsbL-0550_LatLon0.15_PT075H.grib2 2026-04-22 04:23 1.0M
20260422T00Z_MSC_GDPS_DewPointDepression_IsbL-0600_LatLon0.15_PT075H.grib2 2026-04-22 04:23 1.0M
20260422T00Z_MSC_GDPS_DewPointDepression_IsbL-0650_LatLon0.15_PT075H.grib2 2026-04-22 04:23 1.0M
20260422T00Z_MSC_GDPS_DewPointDepression_IsbL-0700_LatLon0.15_PT075H.grib2 2026-04-22 04:23 1.1M
20260422T00Z_MSC_GDPS_DewPointDepression_IsbL-0750_LatLon0.15_PT075H.grib2 2026-04-22 04:23 1.1M
20260422T00Z_MSC_GDPS_DewPointDepression_IsbL-0800_LatLon0.15_PT075H.grib2 2026-04-22 04:23 1.1M
20260422T00Z_MSC_GDPS_DewPointDepression_IsbL-0850_LatLon0.15_PT075H.grib2 2026-04-22 04:23 1.1M
20260422T00Z_MSC_GDPS_DewPointDepression_IsbL-0875_LatLon0.15_PT075H.grib2 2026-04-22 04:23 1.1M
20260422T00Z_MSC_GDPS_DewPointDepression_IsbL-0900_LatLon0.15_PT075H.grib2 2026-04-22 04:23 1.0M
20260422T00Z_MSC_GDPS_DewPointDepression_IsbL-0925_LatLon0.15_PT075H.grib2 2026-04-22 04:23 1.0M
20260422T00Z_MSC_GDPS_DewPointDepression_IsbL-0950_LatLon0.15_PT075H.grib2 2026-04-22 04:23 1.0M
20260422T00Z_MSC_GDPS_DewPointDepression_IsbL-0970_LatLon0.15_PT075H.grib2 2026-04-22 04:23 1.0M
20260422T00Z_MSC_GDPS_DewPointDepression_IsbL-0985_LatLon0.15_PT075H.grib2 2026-04-22 04:23 1.0M
20260422T00Z_MSC_GDPS_DewPointDepression_IsbL-1000_LatLon0.15_PT075H.grib2 2026-04-22 04:23 965K
20260422T00Z_MSC_GDPS_DewPointDepression_IsbL-1015_LatLon0.15_PT075H.grib2 2026-04-22 04:23 905K
20260422T00Z_MSC_GDPS_DewPoint_AGL-2m_LatLon0.15_PT075H.grib2 2026-04-22 04:23 601K
20260422T00Z_MSC_GDPS_DownwardLongwaveRadiationFlux-Accum_Sfc_LatLon0.15_PT075H.grib2 2026-04-22 04:23 917K
20260422T00Z_MSC_GDPS_DownwardShortwaveRadiationFlux-Accum_NTAtm_LatLon0.15_PT075H.grib2 2026-04-22 04:23 200K
20260422T00Z_MSC_GDPS_DownwardShortwaveRadiationFlux-Accum_Sfc_LatLon0.15_PT075H.grib2 2026-04-22 04:23 891K
20260422T00Z_MSC_GDPS_FreezingRain-Accum1h_Sfc_LatLon0.15_PT075H.grib2 2026-04-22 04:23 43K
20260422T00Z_MSC_GDPS_FreezingRain-Accum3h_Sfc_LatLon0.15_PT075H.grib2 2026-04-22 04:23 51K
20260422T00Z_MSC_GDPS_FreezingRain-Accum_Sfc_LatLon0.15_PT075H.grib2 2026-04-22 04:23 289K
20260422T00Z_MSC_GDPS_GeopotentialHeight_IsbL-0001_LatLon0.15_PT075H.grib2 2026-04-22 04:23 396K
20260422T00Z_MSC_GDPS_GeopotentialHeight_IsbL-0005_LatLon0.15_PT075H.grib2 2026-04-22 04:23 499K
20260422T00Z_MSC_GDPS_GeopotentialHeight_IsbL-0010_LatLon0.15_PT075H.grib2 2026-04-22 04:23 481K
20260422T00Z_MSC_GDPS_GeopotentialHeight_IsbL-0020_LatLon0.15_PT075H.grib2 2026-04-22 04:23 565K
20260422T00Z_MSC_GDPS_GeopotentialHeight_IsbL-0030_LatLon0.15_PT075H.grib2 2026-04-22 04:23 569K
20260422T00Z_MSC_GDPS_GeopotentialHeight_IsbL-0050_LatLon0.15_PT075H.grib2 2026-04-22 04:23 565K
20260422T00Z_MSC_GDPS_GeopotentialHeight_IsbL-0100_LatLon0.15_PT075H.grib2 2026-04-22 04:23 603K
20260422T00Z_MSC_GDPS_GeopotentialHeight_IsbL-0150_LatLon0.15_PT075H.grib2 2026-04-22 04:23 621K
20260422T00Z_MSC_GDPS_GeopotentialHeight_IsbL-0175_LatLon0.15_PT075H.grib2 2026-04-22 04:23 627K
20260422T00Z_MSC_GDPS_GeopotentialHeight_IsbL-0200_LatLon0.15_PT075H.grib2 2026-04-22 04:23 633K
20260422T00Z_MSC_GDPS_GeopotentialHeight_IsbL-0225_LatLon0.15_PT075H.grib2 2026-04-22 04:23 630K
20260422T00Z_MSC_GDPS_GeopotentialHeight_IsbL-0250_LatLon0.15_PT075H.grib2 2026-04-22 04:23 635K
20260422T00Z_MSC_GDPS_GeopotentialHeight_IsbL-0275_LatLon0.15_PT075H.grib2 2026-04-22 04:23 638K
20260422T00Z_MSC_GDPS_GeopotentialHeight_IsbL-0300_LatLon0.15_PT075H.grib2 2026-04-22 04:23 638K
20260422T00Z_MSC_GDPS_GeopotentialHeight_IsbL-0350_LatLon0.15_PT075H.grib2 2026-04-22 04:23 630K
20260422T00Z_MSC_GDPS_GeopotentialHeight_IsbL-0400_LatLon0.15_PT075H.grib2 2026-04-22 04:23 622K
20260422T00Z_MSC_GDPS_GeopotentialHeight_IsbL-0450_LatLon0.15_PT075H.grib2 2026-04-22 04:23 544K
20260422T00Z_MSC_GDPS_GeopotentialHeight_IsbL-0500_LatLon0.15_PT075H.grib2 2026-04-22 04:23 531K
20260422T00Z_MSC_GDPS_GeopotentialHeight_IsbL-0550_LatLon0.15_PT075H.grib2 2026-04-22 04:23 523K
20260422T00Z_MSC_GDPS_GeopotentialHeight_IsbL-0600_LatLon0.15_PT075H.grib2 2026-04-22 04:23 686K
20260422T00Z_MSC_GDPS_GeopotentialHeight_IsbL-0650_LatLon0.15_PT075H.grib2 2026-04-22 04:23 680K
20260422T00Z_MSC_GDPS_GeopotentialHeight_IsbL-0700_LatLon0.15_PT075H.grib2 2026-04-22 04:23 673K
20260422T00Z_MSC_GDPS_GeopotentialHeight_IsbL-0750_LatLon0.15_PT075H.grib2 2026-04-22 04:23 676K
20260422T00Z_MSC_GDPS_GeopotentialHeight_IsbL-0800_LatLon0.15_PT075H.grib2 2026-04-22 04:23 692K
20260422T00Z_MSC_GDPS_GeopotentialHeight_IsbL-0850_LatLon0.15_PT075H.grib2 2026-04-22 04:23 703K
20260422T00Z_MSC_GDPS_GeopotentialHeight_IsbL-0875_LatLon0.15_PT075H.grib2 2026-04-22 04:23 709K
20260422T00Z_MSC_GDPS_GeopotentialHeight_IsbL-0900_LatLon0.15_PT075H.grib2 2026-04-22 04:23 714K
20260422T00Z_MSC_GDPS_GeopotentialHeight_IsbL-0925_LatLon0.15_PT075H.grib2 2026-04-22 04:23 724K
20260422T00Z_MSC_GDPS_GeopotentialHeight_IsbL-0950_LatLon0.15_PT075H.grib2 2026-04-22 04:23 730K
20260422T00Z_MSC_GDPS_GeopotentialHeight_IsbL-0970_LatLon0.15_PT075H.grib2 2026-04-22 04:23 742K
20260422T00Z_MSC_GDPS_GeopotentialHeight_IsbL-0985_LatLon0.15_PT075H.grib2 2026-04-22 04:23 759K
20260422T00Z_MSC_GDPS_GeopotentialHeight_IsbL-1000_LatLon0.15_PT075H.grib2 2026-04-22 04:23 780K
20260422T00Z_MSC_GDPS_GeopotentialHeight_IsbL-1015_LatLon0.15_PT075H.grib2 2026-04-22 04:23 803K
20260422T00Z_MSC_GDPS_Humidex_Sfc_LatLon0.15_PT075H.grib2 2026-04-22 04:23 5.3M
20260422T00Z_MSC_GDPS_IcePellets-Accum1h_Sfc_LatLon0.15_PT075H.grib2 2026-04-22 04:23 22K
20260422T00Z_MSC_GDPS_IcePellets-Accum3h_Sfc_LatLon0.15_PT075H.grib2 2026-04-22 04:23 25K
20260422T00Z_MSC_GDPS_IcePellets-Accum_Sfc_LatLon0.15_PT075H.grib2 2026-04-22 04:23 106K
20260422T00Z_MSC_GDPS_KIndex_Sfc_LatLon0.15_PT075H.grib2 2026-04-22 04:23 6.5M
20260422T00Z_MSC_GDPS_LatentHeatNetFlux_Sfc_LatLon0.15_PT075H.grib2 2026-04-22 04:23 670K
20260422T00Z_MSC_GDPS_LiftedIndex-MU-VT_IsbL-0500_LatLon0.15_PT075H.grib2 2026-04-22 04:23 5.4M
20260422T00Z_MSC_GDPS_NetLongwaveRadiationFlux-Accum_Sfc_LatLon0.15_PT075H.grib2 2026-04-22 04:23 1.0M
20260422T00Z_MSC_GDPS_NetShortwaveRadiationFlux-Accum_Sfc_LatLon0.15_PT075H.grib2 2026-04-22 04:23 1.1M
20260422T00Z_MSC_GDPS_O3MixingRatio_LatLon0.15_PT075H.grib2 2026-04-22 04:58 2.3M
20260422T00Z_MSC_GDPS_O3_EAtm_LatLon0.15_PT075H.grib2 2026-04-22 04:58 2.5M
20260422T00Z_MSC_GDPS_PlanetaryBoundaryLayerHeight_Sfc_LatLon0.15_PT075H.grib2 2026-04-22 04:23 2.4M
20260422T00Z_MSC_GDPS_Precip-Accum1h_Sfc_LatLon0.15_PT075H.grib2 2026-04-22 04:23 3.2M
20260422T00Z_MSC_GDPS_Precip-Accum3h_Sfc_LatLon0.15_PT075H.grib2 2026-04-22 04:23 3.5M
20260422T00Z_MSC_GDPS_Precip-Accum_Sfc_LatLon0.15_PT075H.grib2 2026-04-22 04:23 4.9M
20260422T00Z_MSC_GDPS_PrecipRate_Sfc_LatLon0.15_PT075H.grib2 2026-04-22 04:23 2.9M
20260422T00Z_MSC_GDPS_PrecipType-Instant_Sfc_LatLon0.15_PT075H.grib2 2026-04-22 04:23 1.5M
20260422T00Z_MSC_GDPS_Pressure_MSL_LatLon0.15_PT075H.grib2 2026-04-22 04:23 715K
20260422T00Z_MSC_GDPS_Pressure_PVU-1.5_LatLon0.15_PT075H.grib2 2026-04-22 04:23 5.8M
20260422T00Z_MSC_GDPS_Pressure_PVU-1_LatLon0.15_PT075H.grib2 2026-04-22 04:23 6.0M
20260422T00Z_MSC_GDPS_Pressure_PVU-2_LatLon0.15_PT075H.grib2 2026-04-22 04:23 5.6M
20260422T00Z_MSC_GDPS_Pressure_Sfc_LatLon0.15_PT075H.grib2 2026-04-22 04:23 1.1M
20260422T00Z_MSC_GDPS_RadiativeTemp_Sfc_LatLon0.15_PT075H.grib2 2026-04-22 04:23 660K
20260422T00Z_MSC_GDPS_Rain-Accum1h_Sfc_LatLon0.15_PT075H.grib2 2026-04-22 04:23 1.6M
20260422T00Z_MSC_GDPS_Rain-Accum3h_Sfc_LatLon0.15_PT075H.grib2 2026-04-22 04:23 1.6M
20260422T00Z_MSC_GDPS_Rain-Accum_Sfc_LatLon0.15_PT075H.grib2 2026-04-22 04:23 3.9M
20260422T00Z_MSC_GDPS_RelativeHumidity_AGL-2m_LatLon0.15_PT075H.grib2 2026-04-22 04:23 1.0M
20260422T00Z_MSC_GDPS_RelativeHumidity_IsbL-0010_LatLon0.15_PT075H.grib2 2026-04-22 04:23 263K
20260422T00Z_MSC_GDPS_RelativeHumidity_IsbL-0020_LatLon0.15_PT075H.grib2 2026-04-22 04:23 271K
20260422T00Z_MSC_GDPS_RelativeHumidity_IsbL-0030_LatLon0.15_PT075H.grib2 2026-04-22 04:23 421K
20260422T00Z_MSC_GDPS_RelativeHumidity_IsbL-0050_LatLon0.15_PT075H.grib2 2026-04-22 04:23 331K
20260422T00Z_MSC_GDPS_RelativeHumidity_IsbL-0100_LatLon0.15_PT075H.grib2 2026-04-22 04:23 494K
20260422T00Z_MSC_GDPS_RelativeHumidity_IsbL-0150_LatLon0.15_PT075H.grib2 2026-04-22 04:23 652K
20260422T00Z_MSC_GDPS_RelativeHumidity_IsbL-0175_LatLon0.15_PT075H.grib2 2026-04-22 04:23 587K
20260422T00Z_MSC_GDPS_RelativeHumidity_IsbL-0200_LatLon0.15_PT075H.grib2 2026-04-22 04:23 696K
20260422T00Z_MSC_GDPS_RelativeHumidity_IsbL-0225_LatLon0.15_PT075H.grib2 2026-04-22 04:23 782K
20260422T00Z_MSC_GDPS_RelativeHumidity_IsbL-0250_LatLon0.15_PT075H.grib2 2026-04-22 04:23 862K
20260422T00Z_MSC_GDPS_RelativeHumidity_IsbL-0275_LatLon0.15_PT075H.grib2 2026-04-22 04:23 886K
20260422T00Z_MSC_GDPS_RelativeHumidity_IsbL-0300_LatLon0.15_PT075H.grib2 2026-04-22 04:23 931K
20260422T00Z_MSC_GDPS_RelativeHumidity_IsbL-0350_LatLon0.15_PT075H.grib2 2026-04-22 04:23 956K
20260422T00Z_MSC_GDPS_RelativeHumidity_IsbL-0400_LatLon0.15_PT075H.grib2 2026-04-22 04:23 1.0M
20260422T00Z_MSC_GDPS_RelativeHumidity_IsbL-0450_LatLon0.15_PT075H.grib2 2026-04-22 04:23 1.0M
20260422T00Z_MSC_GDPS_RelativeHumidity_IsbL-0500_LatLon0.15_PT075H.grib2 2026-04-22 04:23 1.0M
20260422T00Z_MSC_GDPS_RelativeHumidity_IsbL-0550_LatLon0.15_PT075H.grib2 2026-04-22 04:23 1.1M
20260422T00Z_MSC_GDPS_RelativeHumidity_IsbL-0600_LatLon0.15_PT075H.grib2 2026-04-22 04:23 1.1M
20260422T00Z_MSC_GDPS_RelativeHumidity_IsbL-0650_LatLon0.15_PT075H.grib2 2026-04-22 04:23 1.1M
20260422T00Z_MSC_GDPS_RelativeHumidity_IsbL-0700_LatLon0.15_PT075H.grib2 2026-04-22 04:23 1.1M
20260422T00Z_MSC_GDPS_RelativeHumidity_IsbL-0750_LatLon0.15_PT075H.grib2 2026-04-22 04:23 1.1M
20260422T00Z_MSC_GDPS_RelativeHumidity_IsbL-0800_LatLon0.15_PT075H.grib2 2026-04-22 04:23 1.2M
20260422T00Z_MSC_GDPS_RelativeHumidity_IsbL-0850_LatLon0.15_PT075H.grib2 2026-04-22 04:23 1.3M
20260422T00Z_MSC_GDPS_RelativeHumidity_IsbL-0875_LatLon0.15_PT075H.grib2 2026-04-22 04:23 1.2M
20260422T00Z_MSC_GDPS_RelativeHumidity_IsbL-0900_LatLon0.15_PT075H.grib2 2026-04-22 04:23 1.2M
20260422T00Z_MSC_GDPS_RelativeHumidity_IsbL-0925_LatLon0.15_PT075H.grib2 2026-04-22 04:23 1.2M
20260422T00Z_MSC_GDPS_RelativeHumidity_IsbL-0950_LatLon0.15_PT075H.grib2 2026-04-22 04:23 1.2M
20260422T00Z_MSC_GDPS_RelativeHumidity_IsbL-0970_LatLon0.15_PT075H.grib2 2026-04-22 04:23 1.2M
20260422T00Z_MSC_GDPS_RelativeHumidity_IsbL-0985_LatLon0.15_PT075H.grib2 2026-04-22 04:23 1.1M
20260422T00Z_MSC_GDPS_RelativeHumidity_IsbL-1000_LatLon0.15_PT075H.grib2 2026-04-22 04:23 1.1M
20260422T00Z_MSC_GDPS_RelativeHumidity_IsbL-1015_LatLon0.15_PT075H.grib2 2026-04-22 04:23 1.0M
20260422T00Z_MSC_GDPS_RelativeVorticity_IsbL-0200_LatLon0.15_PT075H.grib2 2026-04-22 04:23 1.5M
20260422T00Z_MSC_GDPS_RelativeVorticity_IsbL-0250_LatLon0.15_PT075H.grib2 2026-04-22 04:23 1.3M
20260422T00Z_MSC_GDPS_RelativeVorticity_IsbL-0500_LatLon0.15_PT075H.grib2 2026-04-22 04:23 1.5M
20260422T00Z_MSC_GDPS_RelativeVorticity_IsbL-0700_LatLon0.15_PT075H.grib2 2026-04-22 04:23 1.6M
20260422T00Z_MSC_GDPS_RelativeVorticity_IsbL-0850_LatLon0.15_PT075H.grib2 2026-04-22 04:23 1.6M
20260422T00Z_MSC_GDPS_Runoff-Accum_Sfc_LatLon0.15_PT075H.grib2 2026-04-22 04:23 99K
20260422T00Z_MSC_GDPS_SensibleHeatNetFlux_Sfc_LatLon0.15_PT075H.grib2 2026-04-22 04:23 457K
20260422T00Z_MSC_GDPS_ShowalterIndex_IsbL-0500_LatLon0.15_PT075H.grib2 2026-04-22 04:23 6.2M
20260422T00Z_MSC_GDPS_Snow-Accum1h_Sfc_LatLon0.15_PT075H.grib2 2026-04-22 04:23 1.1M
20260422T00Z_MSC_GDPS_Snow-Accum3h_Sfc_LatLon0.15_PT075H.grib2 2026-04-22 04:23 1.1M
20260422T00Z_MSC_GDPS_Snow-Accum_Sfc_LatLon0.15_PT075H.grib2 2026-04-22 04:23 1.9M
20260422T00Z_MSC_GDPS_SnowDensity_Sfc_LatLon0.15_PT075H.grib2 2026-04-22 04:23 268K
20260422T00Z_MSC_GDPS_SnowDepth_Sfc_LatLon0.15_PT075H.grib2 2026-04-22 04:23 1.8M
20260422T00Z_MSC_GDPS_SoilTemp_DBS-0to10cm_LatLon0.15_PT075H.grib2 2026-04-22 04:23 505K
20260422T00Z_MSC_GDPS_SoilTemp_Sfc_LatLon0.15_PT075H.grib2 2026-04-22 04:23 567K
20260422T00Z_MSC_GDPS_SoilVolumetricIceContent_Sfc_LatLon0.15_PT075H.grib2 2026-04-22 04:23 216K
20260422T00Z_MSC_GDPS_SoilVolumetricWaterContent_DBS-0to10cm_LatLon0.15_PT075H.grib2 2026-04-22 04:23 560K
20260422T00Z_MSC_GDPS_SoilVolumetricWaterContent_DBS-0to1cm_LatLon0.15_PT075H.grib2 2026-04-22 04:23 655K
20260422T00Z_MSC_GDPS_SpecificHumidity_AGL-120m_LatLon0.15_PT075H.grib2 2026-04-22 04:23 1.1M
20260422T00Z_MSC_GDPS_SpecificHumidity_AGL-2m_LatLon0.15_PT075H.grib2 2026-04-22 04:23 1.2M
20260422T00Z_MSC_GDPS_SpecificHumidity_AGL-40m_LatLon0.15_PT075H.grib2 2026-04-22 04:23 1.1M
20260422T00Z_MSC_GDPS_SpecificHumidity_AGL-80m_LatLon0.15_PT075H.grib2 2026-04-22 04:23 1.1M
20260422T00Z_MSC_GDPS_SpecificHumidity_IsbL-0001_LatLon0.15_PT075H.grib2 2026-04-22 04:23 1.3M
20260422T00Z_MSC_GDPS_SpecificHumidity_IsbL-0005_LatLon0.15_PT075H.grib2 2026-04-22 04:23 1.5M
20260422T00Z_MSC_GDPS_SpecificHumidity_IsbL-0010_LatLon0.15_PT075H.grib2 2026-04-22 04:23 1.3M
20260422T00Z_MSC_GDPS_SpecificHumidity_IsbL-0020_LatLon0.15_PT075H.grib2 2026-04-22 04:23 1.3M
20260422T00Z_MSC_GDPS_SpecificHumidity_IsbL-0030_LatLon0.15_PT075H.grib2 2026-04-22 04:23 1.6M
20260422T00Z_MSC_GDPS_SpecificHumidity_IsbL-0050_LatLon0.15_PT075H.grib2 2026-04-22 04:23 1.3M
20260422T00Z_MSC_GDPS_SpecificHumidity_IsbL-0100_LatLon0.15_PT075H.grib2 2026-04-22 04:23 1.3M
20260422T00Z_MSC_GDPS_SpecificHumidity_IsbL-0150_LatLon0.15_PT075H.grib2 2026-04-22 04:23 1.2M
20260422T00Z_MSC_GDPS_SpecificHumidity_IsbL-0175_LatLon0.15_PT075H.grib2 2026-04-22 04:23 1.2M
20260422T00Z_MSC_GDPS_SpecificHumidity_IsbL-0200_LatLon0.15_PT075H.grib2 2026-04-22 04:23 1.3M
20260422T00Z_MSC_GDPS_SpecificHumidity_IsbL-0225_LatLon0.15_PT075H.grib2 2026-04-22 04:23 1.3M
20260422T00Z_MSC_GDPS_SpecificHumidity_IsbL-0250_LatLon0.15_PT075H.grib2 2026-04-22 04:23 1.4M
20260422T00Z_MSC_GDPS_SpecificHumidity_IsbL-0275_LatLon0.15_PT075H.grib2 2026-04-22 04:23 1.3M
20260422T00Z_MSC_GDPS_SpecificHumidity_IsbL-0300_LatLon0.15_PT075H.grib2 2026-04-22 04:23 1.2M
20260422T00Z_MSC_GDPS_SpecificHumidity_IsbL-0350_LatLon0.15_PT075H.grib2 2026-04-22 04:23 1.2M
20260422T00Z_MSC_GDPS_SpecificHumidity_IsbL-0400_LatLon0.15_PT075H.grib2 2026-04-22 04:23 1.5M
20260422T00Z_MSC_GDPS_SpecificHumidity_IsbL-0450_LatLon0.15_PT075H.grib2 2026-04-22 04:23 1.6M
20260422T00Z_MSC_GDPS_SpecificHumidity_IsbL-0500_LatLon0.15_PT075H.grib2 2026-04-22 04:23 1.4M
20260422T00Z_MSC_GDPS_SpecificHumidity_IsbL-0550_LatLon0.15_PT075H.grib2 2026-04-22 04:23 1.6M
20260422T00Z_MSC_GDPS_SpecificHumidity_IsbL-0600_LatLon0.15_PT075H.grib2 2026-04-22 04:23 1.7M
20260422T00Z_MSC_GDPS_SpecificHumidity_IsbL-0650_LatLon0.15_PT075H.grib2 2026-04-22 04:23 1.5M
20260422T00Z_MSC_GDPS_SpecificHumidity_IsbL-0700_LatLon0.15_PT075H.grib2 2026-04-22 04:23 1.6M
20260422T00Z_MSC_GDPS_SpecificHumidity_IsbL-0750_LatLon0.15_PT075H.grib2 2026-04-22 04:23 1.7M
20260422T00Z_MSC_GDPS_SpecificHumidity_IsbL-0800_LatLon0.15_PT075H.grib2 2026-04-22 04:23 1.8M
20260422T00Z_MSC_GDPS_SpecificHumidity_IsbL-0850_LatLon0.15_PT075H.grib2 2026-04-22 04:23 1.9M
20260422T00Z_MSC_GDPS_SpecificHumidity_IsbL-0875_LatLon0.15_PT075H.grib2 2026-04-22 04:23 1.9M
20260422T00Z_MSC_GDPS_SpecificHumidity_IsbL-0900_LatLon0.15_PT075H.grib2 2026-04-22 04:23 1.9M
20260422T00Z_MSC_GDPS_SpecificHumidity_IsbL-0925_LatLon0.15_PT075H.grib2 2026-04-22 04:23 1.9M
20260422T00Z_MSC_GDPS_SpecificHumidity_IsbL-0950_LatLon0.15_PT075H.grib2 2026-04-22 04:23 1.5M
20260422T00Z_MSC_GDPS_SpecificHumidity_IsbL-0970_LatLon0.15_PT075H.grib2 2026-04-22 04:23 1.5M
20260422T00Z_MSC_GDPS_SpecificHumidity_IsbL-0985_LatLon0.15_PT075H.grib2 2026-04-22 04:23 1.5M
20260422T00Z_MSC_GDPS_SpecificHumidity_IsbL-1000_LatLon0.15_PT075H.grib2 2026-04-22 04:23 1.5M
20260422T00Z_MSC_GDPS_SpecificHumidity_IsbL-1015_LatLon0.15_PT075H.grib2 2026-04-22 04:23 1.4M
20260422T00Z_MSC_GDPS_SpecificHumidity_Sfc_LatLon0.15_PT075H.grib2 2026-04-22 04:23 629K
20260422T00Z_MSC_GDPS_Thickness_IsbL-0850to0700_LatLon0.15_PT075H.grib2 2026-04-22 04:23 460K
20260422T00Z_MSC_GDPS_Thickness_IsbL-1000to0500_LatLon0.15_PT075H.grib2 2026-04-22 04:23 366K
20260422T00Z_MSC_GDPS_Thickness_IsbL-1000to0850_LatLon0.15_PT075H.grib2 2026-04-22 04:23 484K
20260422T00Z_MSC_GDPS_TotalCloudCover_Sfc_LatLon0.15_PT075H.grib2 2026-04-22 04:23 828K
20260422T00Z_MSC_GDPS_TotalTotalsIndex_Sfc_LatLon0.15_PT075H.grib2 2026-04-22 04:23 6.2M
20260422T00Z_MSC_GDPS_UVIndex-ClearSky_Sfc_LatLon0.15_PT075H.grib2 2026-04-22 04:58 1.0M
20260422T00Z_MSC_GDPS_UVIndex_Sfc_LatLon0.15_PT075H.grib2 2026-04-22 04:58 1.5M
20260422T00Z_MSC_GDPS_UpwardLongwaveRadiationFlux_NTAtm_LatLon0.15_PT075H.grib2 2026-04-22 04:23 1.1M
20260422T00Z_MSC_GDPS_VerticalVelocity_IsbL-0200_LatLon0.15_PT075H.grib2 2026-04-22 04:23 926K
20260422T00Z_MSC_GDPS_VerticalVelocity_IsbL-0250_LatLon0.15_PT075H.grib2 2026-04-22 04:23 1.0M
20260422T00Z_MSC_GDPS_VerticalVelocity_IsbL-0500_LatLon0.15_PT075H.grib2 2026-04-22 04:23 1.0M
20260422T00Z_MSC_GDPS_VerticalVelocity_IsbL-0600_LatLon0.15_PT075H.grib2 2026-04-22 04:23 1.1M
20260422T00Z_MSC_GDPS_VerticalVelocity_IsbL-0700_LatLon0.15_PT075H.grib2 2026-04-22 04:23 1.1M
20260422T00Z_MSC_GDPS_VerticalVelocity_IsbL-0850_LatLon0.15_PT075H.grib2 2026-04-22 04:23 1.3M
20260422T00Z_MSC_GDPS_WindChill_Sfc_LatLon0.15_PT075H.grib2 2026-04-22 04:23 5.3M
20260422T00Z_MSC_GDPS_WindDir_AGL-10m_LatLon0.15_PT075H.grib2 2026-04-22 04:23 1.3M
20260422T00Z_MSC_GDPS_WindDir_AGL-120m_LatLon0.15_PT075H.grib2 2026-04-22 04:23 1.3M
20260422T00Z_MSC_GDPS_WindDir_AGL-40m_LatLon0.15_PT075H.grib2 2026-04-22 04:23 1.4M
20260422T00Z_MSC_GDPS_WindDir_AGL-80m_LatLon0.15_PT075H.grib2 2026-04-22 04:23 1.4M
20260422T00Z_MSC_GDPS_WindDir_IsbL-0001_LatLon0.15_PT075H.grib2 2026-04-22 04:23 649K
20260422T00Z_MSC_GDPS_WindDir_IsbL-0005_LatLon0.15_PT075H.grib2 2026-04-22 04:23 789K
20260422T00Z_MSC_GDPS_WindDir_IsbL-0010_LatLon0.15_PT075H.grib2 2026-04-22 04:23 860K
20260422T00Z_MSC_GDPS_WindDir_IsbL-0020_LatLon0.15_PT075H.grib2 2026-04-22 04:23 933K
20260422T00Z_MSC_GDPS_WindDir_IsbL-0030_LatLon0.15_PT075H.grib2 2026-04-22 04:23 909K
20260422T00Z_MSC_GDPS_WindDir_IsbL-0050_LatLon0.15_PT075H.grib2 2026-04-22 04:23 956K
20260422T00Z_MSC_GDPS_WindDir_IsbL-0100_LatLon0.15_PT075H.grib2 2026-04-22 04:23 1.0M
20260422T00Z_MSC_GDPS_WindDir_IsbL-0150_LatLon0.15_PT075H.grib2 2026-04-22 04:23 1.0M
20260422T00Z_MSC_GDPS_WindDir_IsbL-0175_LatLon0.15_PT075H.grib2 2026-04-22 04:23 1.1M
20260422T00Z_MSC_GDPS_WindDir_IsbL-0200_LatLon0.15_PT075H.grib2 2026-04-22 04:23 1.1M
20260422T00Z_MSC_GDPS_WindDir_IsbL-0225_LatLon0.15_PT075H.grib2 2026-04-22 04:23 1.1M
20260422T00Z_MSC_GDPS_WindDir_IsbL-0250_LatLon0.15_PT075H.grib2 2026-04-22 04:23 1.1M
20260422T00Z_MSC_GDPS_WindDir_IsbL-0275_LatLon0.15_PT075H.grib2 2026-04-22 04:23 1.2M
20260422T00Z_MSC_GDPS_WindDir_IsbL-0300_LatLon0.15_PT075H.grib2 2026-04-22 04:23 1.2M
20260422T00Z_MSC_GDPS_WindDir_IsbL-0350_LatLon0.15_PT075H.grib2 2026-04-22 04:23 1.2M
20260422T00Z_MSC_GDPS_WindDir_IsbL-0400_LatLon0.15_PT075H.grib2 2026-04-22 04:23 1.3M
20260422T00Z_MSC_GDPS_WindDir_IsbL-0450_LatLon0.15_PT075H.grib2 2026-04-22 04:23 1.3M
20260422T00Z_MSC_GDPS_WindDir_IsbL-0500_LatLon0.15_PT075H.grib2 2026-04-22 04:23 1.3M
20260422T00Z_MSC_GDPS_WindDir_IsbL-0550_LatLon0.15_PT075H.grib2 2026-04-22 04:23 1.4M
20260422T00Z_MSC_GDPS_WindDir_IsbL-0600_LatLon0.15_PT075H.grib2 2026-04-22 04:23 1.5M
20260422T00Z_MSC_GDPS_WindDir_IsbL-0650_LatLon0.15_PT075H.grib2 2026-04-22 04:23 1.5M
20260422T00Z_MSC_GDPS_WindDir_IsbL-0700_LatLon0.15_PT075H.grib2 2026-04-22 04:23 1.6M
20260422T00Z_MSC_GDPS_WindDir_IsbL-0750_LatLon0.15_PT075H.grib2 2026-04-22 04:23 1.7M
20260422T00Z_MSC_GDPS_WindDir_IsbL-0800_LatLon0.15_PT075H.grib2 2026-04-22 04:23 1.8M
20260422T00Z_MSC_GDPS_WindDir_IsbL-0850_LatLon0.15_PT075H.grib2 2026-04-22 04:23 1.9M
20260422T00Z_MSC_GDPS_WindDir_IsbL-0875_LatLon0.15_PT075H.grib2 2026-04-22 04:23 1.9M
20260422T00Z_MSC_GDPS_WindDir_IsbL-0900_LatLon0.15_PT075H.grib2 2026-04-22 04:23 2.0M
20260422T00Z_MSC_GDPS_WindDir_IsbL-0925_LatLon0.15_PT075H.grib2 2026-04-22 04:23 2.0M
20260422T00Z_MSC_GDPS_WindDir_IsbL-0950_LatLon0.15_PT075H.grib2 2026-04-22 04:23 2.0M
20260422T00Z_MSC_GDPS_WindDir_IsbL-0970_LatLon0.15_PT075H.grib2 2026-04-22 04:23 2.0M
20260422T00Z_MSC_GDPS_WindDir_IsbL-0985_LatLon0.15_PT075H.grib2 2026-04-22 04:23 2.0M
20260422T00Z_MSC_GDPS_WindDir_IsbL-1000_LatLon0.15_PT075H.grib2 2026-04-22 04:23 2.1M
20260422T00Z_MSC_GDPS_WindDir_IsbL-1015_LatLon0.15_PT075H.grib2 2026-04-22 04:23 2.0M
20260422T00Z_MSC_GDPS_WindGust-Max_AGL-10m_LatLon0.15_PT075H.grib2 2026-04-22 04:23 2.2M
20260422T00Z_MSC_GDPS_WindGust-Min_AGL-10m_LatLon0.15_PT075H.grib2 2026-04-22 04:23 2.2M
20260422T00Z_MSC_GDPS_WindGust_AGL-10m_LatLon0.15_PT075H.grib2 2026-04-22 04:23 2.2M
20260422T00Z_MSC_GDPS_WindSpeed_AGL-10m_LatLon0.15_PT075H.grib2 2026-04-22 04:23 1.1M
20260422T00Z_MSC_GDPS_WindSpeed_AGL-120m_LatLon0.15_PT075H.grib2 2026-04-22 04:23 1.2M
20260422T00Z_MSC_GDPS_WindSpeed_AGL-40m_LatLon0.15_PT075H.grib2 2026-04-22 04:23 1.2M
20260422T00Z_MSC_GDPS_WindSpeed_AGL-80m_LatLon0.15_PT075H.grib2 2026-04-22 04:23 1.2M
20260422T00Z_MSC_GDPS_WindSpeed_IsbL-0001_LatLon0.15_PT075H.grib2 2026-04-22 04:23 635K
20260422T00Z_MSC_GDPS_WindSpeed_IsbL-0005_LatLon0.15_PT075H.grib2 2026-04-22 04:23 687K
20260422T00Z_MSC_GDPS_WindSpeed_IsbL-0010_LatLon0.15_PT075H.grib2 2026-04-22 04:23 624K
20260422T00Z_MSC_GDPS_WindSpeed_IsbL-0020_LatLon0.15_PT075H.grib2 2026-04-22 04:23 850K
20260422T00Z_MSC_GDPS_WindSpeed_IsbL-0030_LatLon0.15_PT075H.grib2 2026-04-22 04:23 848K
20260422T00Z_MSC_GDPS_WindSpeed_IsbL-0050_LatLon0.15_PT075H.grib2 2026-04-22 04:23 1.0M
20260422T00Z_MSC_GDPS_WindSpeed_IsbL-0100_LatLon0.15_PT075H.grib2 2026-04-22 04:23 1.1M
20260422T00Z_MSC_GDPS_WindSpeed_IsbL-0150_LatLon0.15_PT075H.grib2 2026-04-22 04:23 1.0M
20260422T00Z_MSC_GDPS_WindSpeed_IsbL-0175_LatLon0.15_PT075H.grib2 2026-04-22 04:23 1.0M
20260422T00Z_MSC_GDPS_WindSpeed_IsbL-0200_LatLon0.15_PT075H.grib2 2026-04-22 04:23 1.1M
20260422T00Z_MSC_GDPS_WindSpeed_IsbL-0225_LatLon0.15_PT075H.grib2 2026-04-22 04:23 1.1M
20260422T00Z_MSC_GDPS_WindSpeed_IsbL-0250_LatLon0.15_PT075H.grib2 2026-04-22 04:23 1.1M
20260422T00Z_MSC_GDPS_WindSpeed_IsbL-0275_LatLon0.15_PT075H.grib2 2026-04-22 04:23 1.1M
20260422T00Z_MSC_GDPS_WindSpeed_IsbL-0300_LatLon0.15_PT075H.grib2 2026-04-22 04:23 1.1M
20260422T00Z_MSC_GDPS_WindSpeed_IsbL-0350_LatLon0.15_PT075H.grib2 2026-04-22 04:23 1.1M
20260422T00Z_MSC_GDPS_WindSpeed_IsbL-0400_LatLon0.15_PT075H.grib2 2026-04-22 04:23 1.1M
20260422T00Z_MSC_GDPS_WindSpeed_IsbL-0450_LatLon0.15_PT075H.grib2 2026-04-22 04:23 1.1M
20260422T00Z_MSC_GDPS_WindSpeed_IsbL-0500_LatLon0.15_PT075H.grib2 2026-04-22 04:23 1.1M
20260422T00Z_MSC_GDPS_WindSpeed_IsbL-0550_LatLon0.15_PT075H.grib2 2026-04-22 04:23 1.1M
20260422T00Z_MSC_GDPS_WindSpeed_IsbL-0600_LatLon0.15_PT075H.grib2 2026-04-22 04:23 1.1M
20260422T00Z_MSC_GDPS_WindSpeed_IsbL-0650_LatLon0.15_PT075H.grib2 2026-04-22 04:23 1.4M
20260422T00Z_MSC_GDPS_WindSpeed_IsbL-0700_LatLon0.15_PT075H.grib2 2026-04-22 04:23 1.5M
20260422T00Z_MSC_GDPS_WindSpeed_IsbL-0750_LatLon0.15_PT075H.grib2 2026-04-22 04:23 1.5M
20260422T00Z_MSC_GDPS_WindSpeed_IsbL-0800_LatLon0.15_PT075H.grib2 2026-04-22 04:23 1.6M
20260422T00Z_MSC_GDPS_WindSpeed_IsbL-0850_LatLon0.15_PT075H.grib2 2026-04-22 04:23 1.7M
20260422T00Z_MSC_GDPS_WindSpeed_IsbL-0875_LatLon0.15_PT075H.grib2 2026-04-22 04:23 1.8M
20260422T00Z_MSC_GDPS_WindSpeed_IsbL-0900_LatLon0.15_PT075H.grib2 2026-04-22 04:23 1.8M
20260422T00Z_MSC_GDPS_WindSpeed_IsbL-0925_LatLon0.15_PT075H.grib2 2026-04-22 04:23 1.9M
20260422T00Z_MSC_GDPS_WindSpeed_IsbL-0950_LatLon0.15_PT075H.grib2 2026-04-22 04:23 1.9M
20260422T00Z_MSC_GDPS_WindSpeed_IsbL-0970_LatLon0.15_PT075H.grib2 2026-04-22 04:23 1.9M
20260422T00Z_MSC_GDPS_WindSpeed_IsbL-0985_LatLon0.15_PT075H.grib2 2026-04-22 04:23 1.9M
20260422T00Z_MSC_GDPS_WindSpeed_IsbL-1000_LatLon0.15_PT075H.grib2 2026-04-22 04:23 1.9M
20260422T00Z_MSC_GDPS_WindSpeed_IsbL-1015_LatLon0.15_PT075H.grib2 2026-04-22 04:23 1.8M
20260422T00Z_MSC_GDPS_WindU_AGL-10m_LatLon0.15_PT075H.grib2 2026-04-22 04:23 1.3M
20260422T00Z_MSC_GDPS_WindU_AGL-120m_LatLon0.15_PT075H.grib2 2026-04-22 04:23 1.0M
20260422T00Z_MSC_GDPS_WindU_AGL-40m_LatLon0.15_PT075H.grib2 2026-04-22 04:23 963K
20260422T00Z_MSC_GDPS_WindU_AGL-80m_LatLon0.15_PT075H.grib2 2026-04-22 04:23 969K
20260422T00Z_MSC_GDPS_WindU_IsbL-0001_LatLon0.15_PT075H.grib2 2026-04-22 04:23 639K
20260422T00Z_MSC_GDPS_WindU_IsbL-0005_LatLon0.15_PT075H.grib2 2026-04-22 04:23 687K
20260422T00Z_MSC_GDPS_WindU_IsbL-0010_LatLon0.15_PT075H.grib2 2026-04-22 04:23 698K
20260422T00Z_MSC_GDPS_WindU_IsbL-0020_LatLon0.15_PT075H.grib2 2026-04-22 04:23 652K
20260422T00Z_MSC_GDPS_WindU_IsbL-0030_LatLon0.15_PT075H.grib2 2026-04-22 04:23 729K
20260422T00Z_MSC_GDPS_WindU_IsbL-0050_LatLon0.15_PT075H.grib2 2026-04-22 04:23 695K
20260422T00Z_MSC_GDPS_WindU_IsbL-0100_LatLon0.15_PT075H.grib2 2026-04-22 04:23 911K
20260422T00Z_MSC_GDPS_WindU_IsbL-0150_LatLon0.15_PT075H.grib2 2026-04-22 04:23 1.0M
20260422T00Z_MSC_GDPS_WindU_IsbL-0175_LatLon0.15_PT075H.grib2 2026-04-22 04:23 1.0M
20260422T00Z_MSC_GDPS_WindU_IsbL-0200_LatLon0.15_PT075H.grib2 2026-04-22 04:23 848K
20260422T00Z_MSC_GDPS_WindU_IsbL-0225_LatLon0.15_PT075H.grib2 2026-04-22 04:23 857K
20260422T00Z_MSC_GDPS_WindU_IsbL-0250_LatLon0.15_PT075H.grib2 2026-04-22 04:23 856K
20260422T00Z_MSC_GDPS_WindU_IsbL-0275_LatLon0.15_PT075H.grib2 2026-04-22 04:23 882K
20260422T00Z_MSC_GDPS_WindU_IsbL-0300_LatLon0.15_PT075H.grib2 2026-04-22 04:23 874K
20260422T00Z_MSC_GDPS_WindU_IsbL-0350_LatLon0.15_PT075H.grib2 2026-04-22 04:23 892K
20260422T00Z_MSC_GDPS_WindU_IsbL-0400_LatLon0.15_PT075H.grib2 2026-04-22 04:23 895K
20260422T00Z_MSC_GDPS_WindU_IsbL-0450_LatLon0.15_PT075H.grib2 2026-04-22 04:23 894K
20260422T00Z_MSC_GDPS_WindU_IsbL-0500_LatLon0.15_PT075H.grib2 2026-04-22 04:23 1.1M
20260422T00Z_MSC_GDPS_WindU_IsbL-0550_LatLon0.15_PT075H.grib2 2026-04-22 04:23 1.1M
20260422T00Z_MSC_GDPS_WindU_IsbL-0600_LatLon0.15_PT075H.grib2 2026-04-22 04:23 1.1M
20260422T00Z_MSC_GDPS_WindU_IsbL-0650_LatLon0.15_PT075H.grib2 2026-04-22 04:23 1.2M
20260422T00Z_MSC_GDPS_WindU_IsbL-0700_LatLon0.15_PT075H.grib2 2026-04-22 04:23 1.2M
20260422T00Z_MSC_GDPS_WindU_IsbL-0750_LatLon0.15_PT075H.grib2 2026-04-22 04:23 1.3M
20260422T00Z_MSC_GDPS_WindU_IsbL-0800_LatLon0.15_PT075H.grib2 2026-04-22 04:23 1.3M
20260422T00Z_MSC_GDPS_WindU_IsbL-0850_LatLon0.15_PT075H.grib2 2026-04-22 04:23 1.4M
20260422T00Z_MSC_GDPS_WindU_IsbL-0875_LatLon0.15_PT075H.grib2 2026-04-22 04:23 1.4M
20260422T00Z_MSC_GDPS_WindU_IsbL-0900_LatLon0.15_PT075H.grib2 2026-04-22 04:23 1.5M
20260422T00Z_MSC_GDPS_WindU_IsbL-0925_LatLon0.15_PT075H.grib2 2026-04-22 04:23 1.5M
20260422T00Z_MSC_GDPS_WindU_IsbL-0950_LatLon0.15_PT075H.grib2 2026-04-22 04:23 1.4M
20260422T00Z_MSC_GDPS_WindU_IsbL-0970_LatLon0.15_PT075H.grib2 2026-04-22 04:23 1.4M
20260422T00Z_MSC_GDPS_WindU_IsbL-0985_LatLon0.15_PT075H.grib2 2026-04-22 04:23 1.4M
20260422T00Z_MSC_GDPS_WindU_IsbL-1000_LatLon0.15_PT075H.grib2 2026-04-22 04:23 1.4M
20260422T00Z_MSC_GDPS_WindU_IsbL-1015_LatLon0.15_PT075H.grib2 2026-04-22 04:23 1.3M
20260422T00Z_MSC_GDPS_WindV_AGL-10m_LatLon0.15_PT075H.grib2 2026-04-22 04:23 1.6M
20260422T00Z_MSC_GDPS_WindV_AGL-120m_LatLon0.15_PT075H.grib2 2026-04-22 04:23 1.2M
20260422T00Z_MSC_GDPS_WindV_AGL-40m_LatLon0.15_PT075H.grib2 2026-04-22 04:23 1.2M
20260422T00Z_MSC_GDPS_WindV_AGL-80m_LatLon0.15_PT075H.grib2 2026-04-22 04:23 1.2M
20260422T00Z_MSC_GDPS_WindV_IsbL-0001_LatLon0.15_PT075H.grib2 2026-04-22 04:23 698K
20260422T00Z_MSC_GDPS_WindV_IsbL-0005_LatLon0.15_PT075H.grib2 2026-04-22 04:23 775K
20260422T00Z_MSC_GDPS_WindV_IsbL-0010_LatLon0.15_PT075H.grib2 2026-04-22 04:23 878K
20260422T00Z_MSC_GDPS_WindV_IsbL-0020_LatLon0.15_PT075H.grib2 2026-04-22 04:23 928K
20260422T00Z_MSC_GDPS_WindV_IsbL-0030_LatLon0.15_PT075H.grib2 2026-04-22 04:23 924K
20260422T00Z_MSC_GDPS_WindV_IsbL-0050_LatLon0.15_PT075H.grib2 2026-04-22 04:23 900K
20260422T00Z_MSC_GDPS_WindV_IsbL-0100_LatLon0.15_PT075H.grib2 2026-04-22 04:23 1.0M
20260422T00Z_MSC_GDPS_WindV_IsbL-0150_LatLon0.15_PT075H.grib2 2026-04-22 04:23 930K
20260422T00Z_MSC_GDPS_WindV_IsbL-0175_LatLon0.15_PT075H.grib2 2026-04-22 04:23 1.0M
20260422T00Z_MSC_GDPS_WindV_IsbL-0200_LatLon0.15_PT075H.grib2 2026-04-22 04:23 1.1M
20260422T00Z_MSC_GDPS_WindV_IsbL-0225_LatLon0.15_PT075H.grib2 2026-04-22 04:23 854K
20260422T00Z_MSC_GDPS_WindV_IsbL-0250_LatLon0.15_PT075H.grib2 2026-04-22 04:23 852K
20260422T00Z_MSC_GDPS_WindV_IsbL-0275_LatLon0.15_PT075H.grib2 2026-04-22 04:23 875K
20260422T00Z_MSC_GDPS_WindV_IsbL-0300_LatLon0.15_PT075H.grib2 2026-04-22 04:23 865K
20260422T00Z_MSC_GDPS_WindV_IsbL-0350_LatLon0.15_PT075H.grib2 2026-04-22 04:23 880K
20260422T00Z_MSC_GDPS_WindV_IsbL-0400_LatLon0.15_PT075H.grib2 2026-04-22 04:23 883K
20260422T00Z_MSC_GDPS_WindV_IsbL-0450_LatLon0.15_PT075H.grib2 2026-04-22 04:23 1.1M
20260422T00Z_MSC_GDPS_WindV_IsbL-0500_LatLon0.15_PT075H.grib2 2026-04-22 04:23 1.1M
20260422T00Z_MSC_GDPS_WindV_IsbL-0550_LatLon0.15_PT075H.grib2 2026-04-22 04:23 1.1M
20260422T00Z_MSC_GDPS_WindV_IsbL-0600_LatLon0.15_PT075H.grib2 2026-04-22 04:23 1.1M
20260422T00Z_MSC_GDPS_WindV_IsbL-0650_LatLon0.15_PT075H.grib2 2026-04-22 04:23 1.2M
20260422T00Z_MSC_GDPS_WindV_IsbL-0700_LatLon0.15_PT075H.grib2 2026-04-22 04:23 1.2M
20260422T00Z_MSC_GDPS_WindV_IsbL-0750_LatLon0.15_PT075H.grib2 2026-04-22 04:23 1.2M
20260422T00Z_MSC_GDPS_WindV_IsbL-0800_LatLon0.15_PT075H.grib2 2026-04-22 04:23 1.3M
20260422T00Z_MSC_GDPS_WindV_IsbL-0850_LatLon0.15_PT075H.grib2 2026-04-22 04:23 1.4M
20260422T00Z_MSC_GDPS_WindV_IsbL-0875_LatLon0.15_PT075H.grib2 2026-04-22 04:23 1.4M
20260422T00Z_MSC_GDPS_WindV_IsbL-0900_LatLon0.15_PT075H.grib2 2026-04-22 04:23 1.4M
20260422T00Z_MSC_GDPS_WindV_IsbL-0925_LatLon0.15_PT075H.grib2 2026-04-22 04:23 1.4M
20260422T00Z_MSC_GDPS_WindV_IsbL-0950_LatLon0.15_PT075H.grib2 2026-04-22 04:23 1.4M
20260422T00Z_MSC_GDPS_WindV_IsbL-0970_LatLon0.15_PT075H.grib2 2026-04-22 04:23 1.4M
20260422T00Z_MSC_GDPS_WindV_IsbL-0985_LatLon0.15_PT075H.grib2 2026-04-22 04:23 1.7M
20260422T00Z_MSC_GDPS_WindV_IsbL-1000_LatLon0.15_PT075H.grib2 2026-04-22 04:23 1.7M
20260422T00Z_MSC_GDPS_WindV_IsbL-1015_LatLon0.15_PT075H.grib2 2026-04-22 04:23 1.6M